[[{"header":{"parameterUnit":"m.s-1","parameterCategory":1,"la1":30.2991,"la2":30.254,"lo1":-89.0895,"lo2":-89.0444,"dy":0.0017,"dx":0.0017,"nx":28,"ny":28,"refTime":"2024-04-26T03:00:00:Z","depth":0,"parameterNumber":2,"parameterNumberName":"U-component_of_WINDS"},"data":[0,0,0,0,0,0,0,0,0,0,0,0,0,0,0,0,0,0,0,0,0,0,0,0,0,0,0,0,0,0,0,0,0,0,0,0,0,0,0,0,0,0,0,0,0,0,0,0,0,0,0,0,0,0,0,0,0,0,-5.9985,-5.9985,0,-5.998,-5.998,-5.998,-5.9887,-5.9884,-5.9882,-5.988,-5.9874,-5.9876,-5.9878,0,0,0,0,0,0,0,0,0,0,0,0,0,-5.9914,-5.9916,-5.9985,-5.9985,-5.9985,-5.998,-5.998,-5.998,-5.9887,-5.9884,-5.9881,-5.9879,-5.9874,-5.9876,-5.9879,0,0,0,0,0,0,0,0,0,0,0,0,0,-5.9931,-5.9916,-5.9985,-5.9938,-5.9934,-5.998,-5.998,-5.998,-5.9888,-5.9884,-5.9881,-5.9877,-5.9873,-5.9876,-5.9879,-5.997,0,0,-5.9889,-5.989,0,0,0,0,0,0,0,0,-5.993,-5.9933,-5.9945,-5.9941,-5.9937,-5.993,-5.9953,-5.9977,-5.9889,-5.9905,-5.988,-5.9875,-5.9896,-5.9897,-5.9904,-5.997,-5.9969,-5.9889,-5.9891,-5.9892,-5.9893,0,0,0,0,0,0,0,-5.9929,-5.9933,-5.9983,-5.9945,-5.994,-5.9917,-5.9916,-5.9957,-5.9921,-5.9903,-5.9897,-5.9897,-5.9893,-5.9901,-5.9903,-5.9969,-5.9889,-5.9891,-5.9893,-5.9895,-6.0108,-6.0112,0,0,0,0,0,0,-5.9934,-5.9933,-5.9983,-5.9983,-5.9924,-5.9921,-5.992,-5.9936,-5.992,-5.9914,-5.99,-5.9893,-5.9897,-5.9899,-5.9902,-6.0006,-5.9892,-5.9895,-5.9897,-6.0105,-6.0109,-6.0113,0,0,0,0,0,0,-5.9933,-5.994,-5.9983,-5.9956,-5.996,-5.9926,-5.9946,-5.9938,-5.9945,-5.9918,-5.9911,-5.9915,-5.9895,-5.9898,-5.9953,-6.0004,-5.9896,-5.9899,-6.01,-6.0106,-6.0111,-6.0214,0,0,0,0,0,0,-5.9931,-5.994,-5.9974,-5.9957,-5.9962,-6.0034,-5.9949,-5.994,-5.9951,-5.9942,-5.993,-5.9924,-5.9892,-5.9949,-5.9957,-6.0006,-5.9902,-6.0095,-6.0103,-6.0109,-6.0206,-6.0223,-6.0237,0,0,0,0,0,-5.9929,-6.0003,-5.9976,-5.9982,-6.0003,-6.0038,-6.004,-6.0001,-5.9956,-5.9989,-5.9972,-5.9925,-5.9999,-5.9956,-5.9963,-6.0015,-6.0092,-6.0101,-6.0109,-6.0199,-6.0219,-6.0237,0,0,0,0,0,0,-6.0025,-6.0,-5.9969,-6.004,-6.0042,-6.0022,-6.0063,-6.0024,-6.0039,-6.0029,-5.9981,-5.9979,-6.0042,-6.0034,-5.9987,-6.0102,-6.0037,-6.0047,-6.0103,-6.0122,-6.0137,-6.0136,-5.9904,0,0,0,0,0,-6.0055,-6.0085,-6.0061,-6.0126,-6.0129,-6.0096,-6.011,-6.008,-6.008,-6.008,-6.0066,-6.0067,-6.009,-6.0107,-6.0127,-6.0206,-6.0201,-6.0246,-6.0261,-6.0274,-6.0282,-6.0322,-6.0341,-6.0141,-6.0141,-6.0141,0,0,-6.0116,-6.0106,-6.0128,-6.0145,-6.0143,-6.0174,-6.0097,-6.0134,-6.0157,-6.0085,-6.0135,-6.0127,-6.0125,-6.0192,-6.0221,-6.0188,-6.0337,-6.0285,-6.0295,-6.0297,-6.0333,-6.0352,-6.0369,-6.0147,-6.0146,-6.0145,0,0,-6.0242,-6.0239,-6.0291,-6.0291,-6.0289,-6.0267,-6.028,-6.0267,-6.0257,-6.0308,-6.0255,-6.0282,-6.0324,-6.0324,-6.033,-6.0459,-6.0416,-6.0468,-6.0547,-6.0586,-6.0602,-6.0615,-6.0659,-6.0675,-6.0477,-6.0477,-6.0477,0,-6.0318,-6.0363,-6.0323,-6.0364,-6.0372,-6.0311,-6.0363,-6.0365,-6.037,-6.0377,-6.0341,-6.0391,-6.0386,-6.0452,-6.0484,-6.0492,-6.0504,-6.0466,-6.0603,-6.0616,-6.0628,-6.0669,-6.0686,-6.0483,-6.0482,-6.0482,-6.0481,0,-6.0455,-6.0488,-6.0531,-6.0537,-6.0551,-6.0598,-6.0564,-6.0584,-6.0555,-6.0537,-6.0589,-6.0581,-6.0598,-6.0612,-6.0584,-6.0674,-6.0654,-6.0612,-6.0544,-6.0654,-6.0691,-6.0707,-6.0492,-6.049,-6.0488,-6.0486,0,0,-6.0638,-6.0623,-6.0639,-6.064,-6.0635,-6.0659,-6.0703,-6.072,-6.0736,-6.0743,-6.0778,-6.0816,-6.0776,-6.0783,-6.0755,-6.079,-6.089,-6.0743,-6.0742,-6.0767,-6.0987,-6.1016,-6.1034,-6.0863,-6.0866,-6.0868,-6.0985,0,-6.0757,-6.083,-6.0797,-6.0874,-6.0902,-6.0846,-6.0884,-6.0885,-6.087,-6.0893,-6.0877,-6.0903,-6.0851,-6.0854,-6.0887,-6.0871,-6.0933,-6.0863,-6.0893,-6.0894,-6.089,-6.1054,-6.1085,-6.1196,-6.1,-6.1003,-6.1005,0,-6.0905,-6.0917,-6.0997,-6.0986,-6.0997,-6.1032,-6.1044,-6.1067,-6.1067,-6.1054,-6.1063,-6.1027,-6.1069,-6.1007,-6.1064,-6.1017,-6.1028,-6.1022,-6.1026,-6.1023,-6.0953,-6.1053,-6.123,-6.1246,-6.1028,-6.1026,-6.1024,0,-6.1026,-6.1063,-6.1115,-6.1119,-6.1108,-6.1134,-6.1131,-6.1127,-6.114,-6.1151,-6.1158,-6.1176,-6.1184,-6.1198,-6.1167,-6.1125,-6.1228,-6.1163,-6.1216,-6.1217,-6.1237,-6.1235,-6.1414,-6.1251,-6.1251,-6.1251,-6.125,0,-6.116,-6.1211,-6.1169,-6.1201,-6.1256,-6.1218,-6.1273,-6.1264,-6.1262,-6.129,-6.1244,-6.1272,-6.1232,-6.1256,-6.1233,-6.1282,-6.1287,-6.1277,-6.1269,-6.1278,-6.1279,-6.1282,-6.1272,-6.1255,-6.1254,-6.1253,-6.1253,0,-6.1303,-6.1278,-6.133,-6.1316,-6.1314,-6.1355,-6.1343,-6.1371,-6.1355,-6.1392,-6.1398,-6.1372,-6.1398,-6.137,-6.1395,-6.1379,-6.1445,-6.1428,-6.1444,-6.1438,-6.1491,-6.1485,-6.1675,-6.1697,-6.1524,-6.1526,-6.1527,0,-6.1388,-6.1425,-6.1416,-6.1431,-6.1431,-6.1458,-6.147,-6.1435,-6.145,-6.1453,-6.1481,-6.1504,-6.1519,-6.1564,-6.1547,-6.1565,-6.1546,-6.1611,-6.1548,-6.1556,-6.1543,-6.1539,-6.1542,-6.1623,-6.1625,-6.1627,-6.1628,0,-6.1541,-6.1527,-6.1546,-6.1562,-6.1578,-6.1589,-6.1596,-6.1612,-6.1576,-6.1595,-6.1621,-6.1633,-6.1658,-6.168,-6.1694,-6.169,-6.1653,-6.1649,-6.1661,-6.1669,-6.1675,-6.1669,-6.1475,-6.1643,-6.1642,-6.1641,-6.164,-6.1639,-6.1654,-6.1684,-6.1682,-6.1706,-6.1708,-6.1716,-6.1742,-6.1729,-6.175,-6.1767,-6.1746,-6.1778,-6.1778,-6.1792,-6.1793,-6.1817,-6.1789,-6.1809,-6.1813,-6.1817,-6.1823,-6.1676,-6.182,-6.182,-6.1819,-6.1819,-6.1819,0,-6.1802,-6.1798,-6.1821,-6.1832,-6.185,-6.1816,-6.1822,-6.184,-6.1868,-6.1871,-6.1888,-6.1918,-6.1939,-6.1925,-6.1944,-6.1966,-6.1949,-6.1971,-6.1967,-6.1966,-6.1849,-6.1834,-6.1984,-6.1984,-6.1984,-6.1984,-6.1984,-6.1984,-6.188,-6.1928,-6.1915,-6.1964,-6.196,-6.199,-6.1997,-6.2004,-6.2006,-6.2041,-6.2059,-6.205,-6.2046,-6.2064,-6.2082,-6.2078,-6.2085,-6.2113,-6.2102,-6.1991,-6.1975,-6.1959,-6.1945,-6.2116,-6.2116,-6.2217,-6.2218,-6.2219]},{"header":{"parameterUnit":"m.s-1","parameterCategory":1,"la1":30.2991,"la2":30.254,"lo1":-89.0895,"lo2":-89.0444,"dy":0.0017,"dx":0.0017,"nx":28,"ny":28,"refTime":"2024-04-26T03:00:00:Z","depth":0,"parameterNumber":3,"parameterNumberName":"V-component_of_WINDS"},"data":[0,0,0,0,0,0,0,0,0,0,0,0,0,0,0,0,0,0,0,0,0,0,0,0,0,0,0,0,0,0,0,0,0,0,0,0,0,0,0,0,0,0,0,0,0,0,0,0,0,0,0,0,0,0,0,0,0,0,3.3897,3.3897,0,3.389,3.389,3.389,3.387,3.387,3.3869,3.3869,3.3859,3.3859,3.3859,0,0,0,0,0,0,0,0,0,0,0,0,0,3.3892,3.3892,3.3897,3.3897,3.3897,3.389,3.389,3.389,3.387,3.387,3.3869,3.3869,3.3859,3.3859,3.3859,0,0,0,0,0,0,0,0,0,0,0,0,0,3.389,3.3892,3.3897,3.3886,3.3885,3.389,3.389,3.389,3.387,3.387,3.3869,3.3869,3.3859,3.3859,3.3859,3.3873,0,0,3.386,3.386,0,0,0,0,0,0,0,0,3.389,3.3891,3.3888,3.3887,3.3886,3.388,3.3884,3.3884,3.3871,3.3876,3.3869,3.3868,3.3867,3.3866,3.3866,3.3873,3.3872,3.386,3.386,3.386,3.386,0,0,0,0,0,0,0,3.3891,3.3891,3.3894,3.3888,3.3887,3.3881,3.388,3.3884,3.3875,3.3875,3.3874,3.3874,3.3866,3.3866,3.3866,3.3872,3.386,3.386,3.386,3.386,3.3891,3.3892,0,0,0,0,0,0,3.3892,3.3891,3.3894,3.3894,3.3887,3.3882,3.3881,3.3883,3.3875,3.3873,3.3874,3.3873,3.3866,3.3866,3.3865,3.3882,3.386,3.386,3.3861,3.389,3.3891,3.3892,0,0,0,0,0,0,3.3892,3.3893,3.3895,3.3892,3.3892,3.3883,3.3885,3.3883,3.3883,3.3874,3.3872,3.3876,3.3865,3.3865,3.3872,3.3881,3.3861,3.3861,3.3889,3.3891,3.3892,3.3914,0,0,0,0,0,0,3.3892,3.3893,3.3898,3.3892,3.3892,3.3902,3.3885,3.3883,3.3884,3.3882,3.3875,3.3873,3.3865,3.3872,3.3872,3.3881,3.3861,3.3889,3.389,3.3891,3.3913,3.3916,3.3919,0,0,0,0,0,3.3892,3.3904,3.3899,3.3899,3.3899,3.3902,3.3902,3.3893,3.3884,3.389,3.3884,3.3873,3.388,3.3873,3.3873,3.3882,3.3888,3.389,3.3891,3.3911,3.3915,3.3919,0,0,0,0,0,0,3.391,3.3903,3.3897,3.3907,3.3906,3.3899,3.3905,3.3897,3.3897,3.3895,3.3883,3.3882,3.3891,3.3887,3.3879,3.3895,3.3882,3.3884,3.3898,3.3901,3.3904,3.3905,3.3861,0,0,0,0,0,3.3916,3.392,3.3913,3.3923,3.3923,3.3914,3.3915,3.3909,3.3906,3.3905,3.39,3.3897,3.3899,3.39,3.39,3.3912,3.3911,3.3919,3.3922,3.3924,3.3926,3.3933,3.3937,3.3897,3.3897,3.3897,0,0,3.3926,3.3923,3.3926,3.3926,3.3924,3.3929,3.3914,3.3918,3.3922,3.3905,3.3912,3.3908,3.3904,3.3914,3.3918,3.3911,3.3937,3.3926,3.3928,3.3928,3.3935,3.3939,3.3942,3.3898,3.3898,3.3898,0,0,3.3948,3.3946,3.3955,3.3953,3.3951,3.3946,3.3948,3.3943,3.394,3.3947,3.3935,3.3938,3.3941,3.3939,3.3939,3.3962,3.3952,3.3962,3.3978,3.3985,3.3988,3.3991,3.4,3.4004,3.3964,3.3964,3.3964,0,3.3962,3.3968,3.396,3.3966,3.3967,3.3954,3.3963,3.3961,3.3959,3.396,3.3952,3.3957,3.3953,3.3963,3.3969,3.3968,3.3971,3.3963,3.3989,3.3991,3.3994,3.4002,3.4006,3.3965,3.3965,3.3965,3.3965,0,3.3986,3.3991,3.3998,3.3997,3.3999,3.4006,3.3999,3.4001,3.3995,3.399,3.3998,3.3993,3.3994,3.3995,3.3988,3.4004,3.4,3.3991,3.3978,3.3999,3.4007,3.401,3.3967,3.3967,3.3966,3.3966,0,0,3.4018,3.4014,3.4017,3.4017,3.4014,3.4018,3.4025,3.4026,3.4029,3.4028,3.4034,3.4037,3.4029,3.4029,3.4022,3.4028,3.4048,3.4018,3.4018,3.4024,3.4066,3.4074,3.4078,3.4042,3.4042,3.4043,3.4067,0,3.4039,3.4052,3.4045,3.4059,3.4064,3.4052,3.4058,3.4057,3.4053,3.4057,3.4052,3.4055,3.4044,3.4044,3.4049,3.4044,3.4056,3.4042,3.4047,3.4047,3.4049,3.4081,3.4089,3.4112,3.407,3.407,3.4071,0,3.4066,3.4068,3.4082,3.408,3.4082,3.4088,3.4089,3.4093,3.4091,3.4088,3.4089,3.408,3.4087,3.4074,3.4083,3.4074,3.4076,3.4074,3.4074,3.4075,3.406,3.4083,3.4119,3.4123,3.4075,3.4075,3.4074,0,3.4089,3.4095,3.4105,3.4106,3.4103,3.4107,3.4106,3.4104,3.4106,3.4107,3.4109,3.411,3.4111,3.4112,3.4105,3.4096,3.4115,3.4102,3.4113,3.4113,3.4118,3.4118,3.4155,3.4118,3.4118,3.4118,3.4118,0,3.4114,3.4124,3.4116,3.4122,3.4132,3.4124,3.4135,3.4132,3.4131,3.4136,3.4126,3.4131,3.4121,3.4125,3.4119,3.4128,3.4128,3.4126,3.4124,3.4127,3.4127,3.4128,3.4126,3.4119,3.4119,3.4118,3.4118,0,3.4142,3.4137,3.4147,3.4144,3.4144,3.4152,3.4149,3.4155,3.4151,3.4158,3.4159,3.4152,3.4157,3.4149,3.4152,3.4148,3.4161,3.4157,3.4162,3.4161,3.4173,3.4173,3.4213,3.4218,3.4177,3.4178,3.4178,0,3.4158,3.4166,3.4164,3.4168,3.4168,3.4173,3.4176,3.4168,3.4171,3.4171,3.4176,3.418,3.4183,3.419,3.4185,3.4188,3.4184,3.4198,3.4184,3.4187,3.4185,3.4185,3.4186,3.42,3.4201,3.4201,3.4202,0,3.4189,3.4186,3.4191,3.4195,3.4198,3.42,3.4202,3.4205,3.4197,3.4201,3.4206,3.4208,3.4212,3.4216,3.4218,3.4216,3.4208,3.4206,3.4209,3.4212,3.4215,3.4215,3.4171,3.4205,3.4205,3.4205,3.4204,3.4204,3.4212,3.4218,3.4219,3.4224,3.4225,3.4227,3.4233,3.423,3.4234,3.4238,3.4233,3.424,3.4239,3.4241,3.424,3.4245,3.4239,3.4243,3.4244,3.4245,3.4247,3.4215,3.4245,3.4245,3.4245,3.4245,3.4245,0,3.4242,3.4243,3.4248,3.4251,3.4256,3.4248,3.425,3.4254,3.426,3.4261,3.4264,3.4271,3.4275,3.4271,3.4274,3.4279,3.4275,3.428,3.428,3.428,3.4252,3.425,3.4283,3.4283,3.4283,3.4283,3.4283,3.4283,3.4259,3.427,3.4268,3.4279,3.4279,3.4286,3.4288,3.429,3.4291,3.4299,3.4303,3.43,3.4299,3.4303,3.4307,3.4305,3.4307,3.4314,3.4311,3.4285,3.4282,3.4278,3.4276,3.4314,3.4314,3.4338,3.4339,3.4339]}]]